Weather History for Roxboro, NC

Change the Weather History Date:

Sunday, October 13, 2013

  Actual Average Record
Temperature  
Mean Temperature 62 °F -  
Max Temperature 64 °F 71 °F 84 °F (2000)
Min Temperature 59 °F 45 °F 25 °F (1988)
Degree Days  
Heating Degree Days 4    
Growing Degree Days 12 (Base 50)    
Moisture  
Dew Point 61 °F    
Average Humidity 99    
Maximum Humidity 100    
Minimum Humidity 94    
Precipitation  
Precipitation 0.04 in - - ()
Sea Level Pressure  
Sea Level Pressure 30.20 in    
Wind  
Wind Speed 6 mph (NNE)    
Max Wind Speed 10 mph    
Max Gust Speed 17 mph    
Visibility 7 miles    
Events Rain    
Averages and records for this station are not official NWS values.
T = Trace of Precipitation, MM = Missing Value Source: NWS Daily Summary

Daily Weather History Graph

Daily Weather History Graph

Search for Another Location

Airport:

Trip Planner

Search our weather history database for the weather conditions in past years. The results will help you decide how hot, cold, wet, or windy it might be!

Date:

Astronomy

Oct. 13, 2013 Rise Set
Actual Time 7:21 AM EDT 6:42 PM EDT
Civil Twilight 6:55 AM EDT 7:08 PM EDT
Nautical Twilight 6:25 AM EDT 7:37 PM EDT
Astronomical Twilight 5:55 AM EDT 8:07 PM EDT
Moon 3:24 PM EDT (10/13) 1:38 AM EDT (10/13)
Length of Visible Light 12h 12m
Length of Day
11h 20m
Waxing Gibbous, 69% of the Moon is Illuminated
Oct 13
Waxing Gibbous
Oct 18
Full
Oct 26
Last Quarter
Nov 3
New
Nov 10
First Quarter

Hourly Weather History & Observations

Time (EDT) Temp. Dew Point Humidity Pressure Visibility Wind Dir Wind Speed Gust Speed Precip Events Conditions
12:15 AM 60.8 °F 60.8 °F 100% 30.12 in 7.0 mi North 4.6 mph - N/A   Overcast
12:35 AM 60.8 °F 60.8 °F 100% 30.12 in 10.0 mi NNE 4.6 mph - N/A   Overcast
12:55 AM 60.8 °F 60.8 °F 100% 30.12 in 7.0 mi NNE 6.9 mph - N/A   Overcast
1:15 AM 60.8 °F 60.8 °F 100% 30.13 in 4.0 mi NNE 5.8 mph - 0.01 in   Light Drizzle
1:35 AM 60.8 °F 60.8 °F 100% 30.13 in 7.0 mi NNE 6.9 mph - 0.01 in   Overcast
1:55 AM 60.8 °F 60.8 °F 100% 30.13 in 5.0 mi NNE 6.9 mph - 0.01 in   Overcast
2:15 AM 60.8 °F 60.8 °F 100% 30.13 in 5.0 mi NNE 5.8 mph - N/A   Overcast
2:35 AM 60.8 °F 60.8 °F 100% 30.13 in 5.0 mi NNE 4.6 mph - N/A   Overcast
2:55 AM 60.8 °F 60.8 °F 100% 30.13 in 7.0 mi NNE 6.9 mph - N/A   Overcast
3:15 AM 60.8 °F 60.8 °F 100% 30.13 in 5.0 mi NE 6.9 mph - N/A   Overcast
3:35 AM 60.8 °F 60.8 °F 100% 30.13 in 10.0 mi NNE 5.8 mph - N/A   Overcast
3:55 AM 60.8 °F 60.8 °F 100% 30.13 in 7.0 mi NNE 6.9 mph - N/A   Overcast
4:15 AM 60.8 °F 60.8 °F 100% 30.14 in 7.0 mi NNE 6.9 mph - N/A   Overcast
4:35 AM 60.8 °F 60.8 °F 100% 30.14 in 5.0 mi North 4.6 mph - N/A   Overcast
4:55 AM 60.8 °F 60.8 °F 100% 30.14 in 7.0 mi North 3.5 mph - N/A   Overcast
5:15 AM 60.8 °F 60.8 °F 100% 30.15 in 7.0 mi NNE 5.8 mph - N/A   Overcast
5:35 AM 60.8 °F 60.8 °F 100% 30.15 in 7.0 mi North 5.8 mph - N/A   Overcast
5:55 AM 59.0 °F 59.0 °F 100% 30.15 in 5.0 mi North 4.6 mph - N/A   Overcast
6:15 AM 59.0 °F 59.0 °F 100% 30.16 in 10.0 mi North 3.5 mph - N/A   Overcast
6:35 AM 59.0 °F 59.0 °F 100% 30.17 in 4.0 mi North 3.5 mph - N/A Rain Heavy Rain
6:55 AM 59.0 °F 59.0 °F 100% 30.17 in 5.0 mi North 5.8 mph - N/A   Overcast
7:15 AM 59.0 °F 59.0 °F 100% 30.17 in 5.0 mi North 5.8 mph - N/A   Overcast
7:35 AM 59.0 °F 59.0 °F 100% 30.17 in 4.0 mi NNE 6.9 mph - N/A   Overcast
7:55 AM 59.0 °F 59.0 °F 100% 30.18 in 2.5 mi NNE 4.6 mph - 0.01 in   Overcast
8:15 AM 59.0 °F 59.0 °F 100% 30.19 in 5.0 mi North 5.8 mph - N/A   Overcast
8:35 AM 60.8 °F 60.8 °F 100% 30.19 in 7.0 mi North 4.6 mph - N/A   Overcast
8:55 AM 60.8 °F 60.8 °F 100% 30.20 in 3.0 mi NNE 4.6 mph - N/A   Overcast
9:15 AM 60.8 °F 60.8 °F 100% 30.21 in 2.0 mi NNE 6.9 mph - N/A   Light Drizzle
9:35 AM 60.8 °F 60.8 °F 100% 30.22 in 7.0 mi North 3.5 mph - N/A   Overcast
9:55 AM 60.8 °F 60.8 °F 100% 30.22 in 5.0 mi North 8.1 mph - N/A   Light Drizzle
10:15 AM 60.8 °F 60.8 °F 100% 30.22 in 10.0 mi NNE 4.6 mph - N/A   Overcast
10:35 AM 60.8 °F 60.8 °F 100% 30.23 in 7.0 mi North 3.5 mph - N/A   Overcast
10:55 AM 60.8 °F 60.8 °F 100% 30.23 in 4.0 mi NNE 4.6 mph - N/A   Overcast
11:15 AM 60.8 °F 60.8 °F 100% 30.23 in 7.0 mi North 6.9 mph - N/A   Overcast
11:55 AM 60.8 °F 60.8 °F 100% 30.23 in 7.0 mi North 5.8 mph - N/A   Overcast
12:15 PM 62.6 °F 62.6 °F 100% 30.22 in 5.0 mi NNE 5.8 mph - N/A   Overcast
12:35 PM 62.6 °F 62.6 °F 100% 30.22 in 10.0 mi NNE 4.6 mph - N/A   Overcast
12:55 PM 62.6 °F 62.6 °F 100% 30.21 in 10.0 mi NNE 8.1 mph - N/A   Overcast
1:15 PM 64.4 °F 62.6 °F 94% 30.21 in 10.0 mi North 5.8 mph - N/A   Overcast
1:35 PM 64.4 °F 62.6 °F 94% 30.21 in 10.0 mi NNE 6.9 mph - N/A   Overcast
1:55 PM 62.6 °F 62.6 °F 100% 30.21 in 10.0 mi NNE 9.2 mph - N/A   Overcast
2:15 PM 62.6 °F 62.6 °F 100% 30.21 in 10.0 mi NNE 5.8 mph - N/A   Overcast
2:35 PM 62.6 °F 62.6 °F 100% 30.20 in 7.0 mi NNE 6.9 mph - N/A   Overcast
2:55 PM 62.6 °F 62.6 °F 100% 30.20 in 10.0 mi North 5.8 mph - N/A   Overcast
3:15 PM 62.6 °F 62.6 °F 100% 30.20 in 10.0 mi NNE 5.8 mph - N/A   Overcast
3:35 PM 62.6 °F 62.6 °F 100% 30.20 in 10.0 mi North 6.9 mph - N/A   Overcast
3:55 PM 62.6 °F 62.6 °F 100% 30.20 in 10.0 mi North 4.6 mph - N/A   Overcast
4:15 PM 62.6 °F 62.6 °F 100% 30.20 in 10.0 mi North 9.2 mph - N/A   Overcast
4:35 PM 62.6 °F 62.6 °F 100% 30.20 in 10.0 mi NNE 6.9 mph - N/A   Overcast
4:55 PM 62.6 °F 62.6 °F 100% 30.20 in 5.0 mi NNE 8.1 mph - N/A   Overcast
5:15 PM 62.6 °F 62.6 °F 100% 30.21 in 7.0 mi NNE 6.9 mph - N/A Rain Light Rain
5:35 PM 62.6 °F 62.6 °F 100% 30.21 in 7.0 mi NNE 8.1 mph 17.3 mph N/A   Overcast
5:55 PM 62.6 °F 62.6 °F 100% 30.21 in 10.0 mi NNE 6.9 mph - N/A   Overcast
6:15 PM 62.6 °F 62.6 °F 100% 30.21 in 10.0 mi NNE 9.2 mph 17.3 mph N/A   Overcast
6:35 PM 62.6 °F 60.8 °F 94% 30.22 in 10.0 mi NNE 10.4 mph - N/A   Overcast
6:55 PM 62.6 °F 60.8 °F 94% 30.22 in 10.0 mi NNE 5.8 mph - N/A   Overcast
7:15 PM 62.6 °F 60.8 °F 94% 30.23 in 10.0 mi NNE 6.9 mph - N/A   Overcast
7:35 PM 62.6 °F 60.8 °F 94% 30.24 in 10.0 mi NNE 9.2 mph - N/A   Overcast
7:55 PM 62.6 °F 60.8 °F 94% 30.24 in 10.0 mi North - - N/A   Overcast
8:15 PM 60.8 °F 60.8 °F 100% 30.25 in 5.0 mi North - - N/A Rain Heavy Rain
8:35 PM 60.8 °F 60.8 °F 100% 30.25 in 10.0 mi North 9.2 mph - N/A   Overcast
8:55 PM 60.8 °F 60.8 °F 100% 30.25 in 10.0 mi North 8.1 mph - N/A   Overcast
9:15 PM 60.8 °F 60.8 °F 100% 30.25 in 5.0 mi North 9.2 mph - 0.01 in Rain Rain
9:35 PM 59.0 °F 59.0 °F 100% 30.25 in 7.0 mi NNE 6.9 mph - 0.02 in   Overcast
9:55 PM 59.0 °F 59.0 °F 100% 30.25 in 4.0 mi NNE 5.8 mph - 0.02 in   Overcast
10:15 PM 59.0 °F 59.0 °F 100% 30.25 in 4.0 mi NNE 6.9 mph - N/A   Overcast
10:35 PM 59.0 °F 59.0 °F 100% 30.25 in 4.0 mi North 4.6 mph - N/A   Overcast
10:55 PM 59.0 °F 59.0 °F 100% 30.26 in 7.0 mi NNE 5.8 mph - N/A   Overcast
11:15 PM 59.0 °F 59.0 °F 100% 30.25 in 4.0 mi NNE 6.9 mph - N/A   Overcast
11:35 PM 59.0 °F 59.0 °F 100% 30.25 in 5.0 mi NNE 6.9 mph - N/A   Overcast
11:55 PM 59.0 °F 59.0 °F 100% 30.25 in 4.0 mi NNE 5.8 mph - N/A   Overcast